Location: Alafon
(8.4500°N, 4.2333°E)
Time: 17:35:33
(UTC+00:00)

A-11 Canister half - Pass Details

Date: 06 August 2021
Orbit: 1515 x 1685 km, 47.2° (Epoch: 19 September)

Event Time Altitude Azimuth Distance (km) Brightness Sun altitude
Rises 21:17:17 0° 340° (NNW) 4,914 12.2 -45.0°
Reaches altitude 10° 21:21:41 10° 356° (N) 3,937 11.4 -45.9°
Enters shadow 21:26:10 19° 22° (NNE) 3,287 10.7 -46.8°
Maximum altitude 21:28:41 21° 40° (NE) 3,176 - -47.3°
Drops below altitude 10° 21:35:38 10° 85° (E) 3,928 - -48.7°
Sets 21:39:57 0° 100° (E) 4,900 - -49.5°
